Date String (YYYY-MM-DD hh:mm:ss) UTC,Instrument flags,absolute air pressure of the measurement (hPa),sample flow rate (lpm),inlet stack bypass flow (lpm),air temperature of the measurement (°C),ambient temperature measured by the external sensor (°C),aerosol sample conditioner tube jacket temperature (°C),OPC LED temperature (°C),internal box temperature (°C),relative humidity of the measurement (%),span deviation,mass concentration of particles derived from Lorenz-Mie calculation of OPC scattering (μg/m³),mass concentration of particles derived from Lorenz-Mie calculation of OPC scattering (μg/m³),mass concentration of particles derived from Lorenz-Mie calculation of OPC scattering (μg/m³)
DateTimeUTC,F1_M11,P_M11,Q1_M11,Q2_M11,T1_M11,T2_M11,T3_M11,T4_M11,T5_M11,U1_M11,ZSPAN_M11,X0_M11,X2_M11,X1_M11
2023-10-14 14:00:00,SystemResetWarning,0837.2,4.99,000.00,025.3,023.8,000.0,033.6,027.0,15.5,0000.0,0005.87,0003.42,0003.20
2023-10-14 14:01:00,SystemResetWarning,0837.2,4.99,000.00,025.3,023.8,000.0,033.6,027.0,15.5,0000.0,0005.82,0003.43,0003.21
2023-10-14 14:02:00,SystemResetWarning,0837.2,4.99,000.00,025.3,023.9,000.0,033.7,027.0,15.4,0000.0,0006.12,0003.44,0003.22
2023-10-14 14:03:00,SystemResetWarning,0837.3,5.00,000.00,025.3,023.9,000.0,033.7,027.1,15.4,0000.0,0006.05,0003.46,0003.22
2023-10-14 14:04:00,SystemResetWarning,0837.3,5.00,000.00,025.3,023.9,000.0,033.7,027.1,15.4,0000.0,0006.35,0003.47,0003.22
2023-10-14 14:05:00,SystemResetWarning,0837.4,5.00,000.00,025.3,023.9,000.0,033.7,027.1,15.4,0000.0,0006.33,0003.46,0003.22
2023-10-14 14:06:00,SystemResetWarning,0837.4,5.00,000.00,025.3,023.9,000.0,033.7,027.1,15.4,0000.0,0006.24,0003.45,0003.22
2023-10-14 14:07:00,SystemResetWarning,0837.5,5.00,000.00,025.3,023.9,000.0,033.7,027.1,15.4,0000.0,0006.09,0003.43,0003.21
2023-10-14 14:08:00,SystemResetWarning,0837.4,5.00,000.00,025.3,023.9,000.0,033.7,027.1,15.3,0000.0,0006.14,0003.44,0003.21
2023-10-14 14:09:00,SystemResetWarning,0837.4,5.01,000.00,025.3,023.9,000.0,033.7,027.1,15.2,0000.0,0006.13,0003.45,0003.22
2023-10-14 14:10:00,SystemResetWarning,0837.4,5.00,000.00,025.3,023.9,000.0,033.7,027.1,15.2,0000.0,0006.52,0003.44,0003.22
2023-10-14 14:11:00,SystemResetWarning,0837.4,4.99,000.00,025.3,023.9,000.0,033.7,027.1,15.1,0000.0,0006.67,0003.43,0003.22
2023-10-14 14:12:00,SystemResetWarning,0837.4,5.00,000.00,025.3,023.9,000.0,033.7,027.1,15.1,0000.0,0006.74,0003.42,0003.23
2023-10-14 14:13:00,SystemResetWarning,0837.4,5.00,000.00,025.3,023.9,000.0,033.7,027.1,15.1,0000.0,0006.37,0003.42,0003.23
2023-10-14 14:14:00,SystemResetWarning,0837.4,5.01,000.00,025.3,023.9,000.0,033.7,027.1,15.1,0000.0,0005.47,0003.40,0003.23
2023-10-14 14:15:00,SystemResetWarning,0837.4,5.01,000.00,025.4,023.9,000.0,033.7,027.1,15.1,0000.0,0005.32,0003.39,0003.23
2023-10-14 14:16:00,SystemResetWarning,0837.5,5.00,000.00,025.4,023.9,000.0,033.7,027.1,15.1,0000.0,0005.36,0003.41,0003.22
2023-10-14 14:17:00,SystemResetWarning,0837.5,5.00,000.00,025.4,023.9,000.0,033.7,027.1,15.1,0000.0,0005.37,0003.42,0003.21
2023-10-14 14:18:00,SystemResetWarning,0837.5,5.00,000.00,025.4,023.9,000.0,033.7,027.1,15.1,0000.0,0005.45,0003.42,0003.21
2023-10-14 14:19:00,SystemResetWarning,0837.6,5.00,000.00,025.4,023.9,000.0,033.7,027.1,15.2,0000.0,0005.75,0003.43,0003.20
2023-10-14 14:20:00,SystemResetWarning,0837.6,5.01,000.00,025.4,023.9,000.0,033.7,027.1,15.2,0000.0,0005.90,0003.43,0003.19
2023-10-14 14:21:00,SystemResetWarning,0837.6,5.01,000.00,025.4,023.9,000.0,033.7,027.1,15.2,0000.0,0006.68,0003.42,0003.18
2023-10-14 14:22:00,SystemResetWarning,0837.6,5.01,000.00,025.4,023.9,000.0,033.7,027.1,15.2,0000.0,0006.75,0003.41,0003.17
2023-10-14 14:23:00,SystemResetWarning,0837.6,5.00,000.00,025.4,023.9,000.0,033.7,027.1,15.2,0000.0,0006.77,0003.41,0003.17
2023-10-14 14:24:00,SystemResetWarning,0837.5,5.00,000.00,025.4,023.9,000.0,033.7,027.1,15.2,0000.0,0006.74,0003.40,0003.15
2023-10-14 14:25:00,SystemResetWarning,0837.5,5.00,000.00,025.4,024.0,000.0,033.8,027.1,15.2,0000.0,0007.02,0003.41,0003.15
2023-10-14 14:26:00,SystemResetWarning,0837.6,5.00,000.00,025.4,024.0,000.0,033.8,027.1,15.2,0000.0,0006.93,0003.40,0003.15
2023-10-14 14:27:00,SystemResetWarning,0837.6,5.00,000.00,025.4,024.0,000.0,033.8,027.1,15.3,0000.0,0006.90,0003.38,0003.15
2023-10-14 14:28:00,SystemResetWarning,0837.6,5.00,000.00,025.4,024.0,000.0,033.8,027.1,15.3,0000.0,0006.87,0003.37,0003.15
2023-10-14 14:29:00,SystemResetWarning,0837.6,5.00,000.00,025.4,024.0,000.0,033.8,027.2,15.2,0000.0,0006.83,0003.38,0003.16
2023-10-14 14:30:00,SystemResetWarning,0837.6,5.00,000.00,025.4,024.0,000.0,033.8,027.2,15.3,0000.0,0006.85,0003.37,0003.16
2023-10-14 14:31:00,SystemResetWarning,0837.5,5.00,000.00,025.4,024.0,000.0,033.8,027.2,15.4,0000.0,0007.70,0003.37,0003.15
2023-10-14 14:32:00,SystemResetWarning,0837.5,5.00,000.00,025.4,024.0,000.0,033.8,027.2,15.3,0000.0,0007.15,0003.39,0003.15
2023-10-14 14:33:00,SystemResetWarning,0837.5,5.00,000.00,025.4,024.0,000.0,033.8,027.1,15.2,0000.0,0006.97,0003.41,0003.15
2023-10-14 14:34:00,SystemResetWarning,0837.5,5.00,000.00,025.4,024.0,000.0,033.8,027.1,15.2,0000.0,0006.82,0003.39,0003.15
2023-10-14 14:35:00,SystemResetWarning,0837.6,5.00,000.00,025.4,024.0,000.0,033.8,027.2,15.2,0000.0,0006.87,0003.40,0003.16
2023-10-14 14:36:00,SystemResetWarning,0837.6,4.99,000.00,025.5,024.0,000.0,033.8,027.2,15.3,0000.0,0006.83,0003.41,0003.16
2023-10-14 14:37:00,SystemResetWarning,0837.7,4.99,000.00,025.5,024.0,000.0,033.8,027.2,15.3,0000.0,0006.68,0003.41,0003.16
2023-10-14 14:38:00,SystemResetWarning,0837.7,5.00,000.00,025.5,024.0,000.0,033.8,027.2,15.3,0000.0,0006.70,0003.42,0003.15
2023-10-14 14:39:00,SystemResetWarning,0837.7,5.00,000.00,025.5,024.0,000.0,033.8,027.2,15.3,0000.0,0006.64,0003.41,0003.15
2023-10-14 14:40:00,SystemResetWarning,0837.6,5.00,000.00,025.5,024.0,000.0,033.8,027.2,15.2,0000.0,0006.91,0003.41,0003.15
2023-10-14 14:41:00,SystemResetWarning,0837.6,5.00,000.00,025.5,024.1,000.0,033.8,027.2,15.3,0000.0,0006.85,0003.39,0003.15
2023-10-14 14:42:00,SystemResetWarning,0837.6,5.01,000.00,025.5,024.1,000.0,033.9,027.2,15.1,0000.0,0005.55,0003.39,0003.15
2023-10-14 14:43:00,SystemResetWarning,0837.6,5.01,000.00,025.5,024.1,000.0,033.8,027.2,15.2,0000.0,0005.19,0003.38,0003.15
2023-10-14 14:44:00,SystemResetWarning,0837.6,4.99,000.00,025.5,024.1,000.0,033.8,027.2,15.2,0000.0,0005.00,0003.37,0003.16
2023-10-14 14:45:00,SystemResetWarning,0837.6,5.00,000.00,025.5,024.1,000.0,033.8,027.2,15.2,0000.0,0004.99,0003.39,0003.17
2023-10-14 14:46:00,SystemResetWarning,0837.6,5.00,000.00,025.5,024.1,000.0,033.9,027.2,15.2,0000.0,0005.07,0003.42,0003.17
2023-10-14 14:47:00,SystemResetWarning,0837.7,4.99,000.00,025.5,024.1,000.0,033.9,027.2,15.2,0000.0,0004.94,0003.42,0003.17
2023-10-14 14:48:00,SystemResetWarning,0837.7,5.00,000.00,025.5,024.1,000.0,033.9,027.3,15.1,0000.0,0004.90,0003.41,0003.17
2023-10-14 14:49:00,SystemResetWarning,0837.6,5.00,000.00,025.5,024.1,000.0,033.9,027.3,15.1,0000.0,0004.87,0003.40,0003.18
2023-10-14 14:50:00,SystemResetWarning,0837.6,5.00,000.00,025.5,024.1,000.0,033.9,027.3,15.1,0000.0,0005.46,0003.40,0003.18
2023-10-14 14:51:00,SystemResetWarning,0837.7,5.01,000.00,025.5,024.1,000.0,033.9,027.3,15.1,0000.0,0005.94,0003.43,0003.19
2023-10-14 14:52:00,SystemResetWarning,0837.6,5.01,000.00,025.5,024.1,000.0,033.9,027.3,15.1,0000.0,0005.91,0003.44,0003.20
2023-10-14 14:53:00,SystemResetWarning,0837.6,5.00,000.00,025.5,024.1,000.0,033.9,027.3,15.1,0000.0,0005.84,0003.43,0003.20
2023-10-14 14:54:00,SystemResetWarning,0837.6,5.00,000.00,025.5,024.2,000.0,033.9,027.3,15.2,0000.0,0005.88,0003.44,0003.21
2023-10-14 14:55:00,SystemResetWarning,0837.6,5.00,000.00,025.6,024.2,000.0,033.9,027.3,15.2,0000.0,0005.81,0003.44,0003.22
2023-10-14 14:56:00,SystemResetWarning,0837.7,5.00,000.00,025.6,024.2,000.0,033.9,027.3,15.2,0000.0,0005.82,0003.41,0003.21
2023-10-14 14:57:00,SystemResetWarning,0837.7,5.00,000.00,025.6,024.2,000.0,033.9,027.3,15.2,0000.0,0006.13,0003.37,0003.21
2023-10-14 14:58:00,SystemResetWarning,0837.7,5.00,000.00,025.6,024.2,000.0,034.0,027.3,15.2,0000.0,0006.14,0003.36,0003.21
2023-10-14 14:59:00,SystemResetWarning,0837.7,4.99,000.00,025.6,024.2,000.0,034.0,027.3,15.2,0000.0,0006.12,0003.35,0003.22
